Date,TemperatureHighF,TemperatureAvgF,TemperatureLowF,DewpointHighF,DewpointAvgF,DewpointLowF,HumidityHigh,HumidityAvg,HumidityLow,PressureMaxIn,PressureMinIn,WindSpeedMaxMPH,WindSpeedAvgMPH,GustSpeedMaxMPH,PrecipitationSumIn
2014-1-1,37.8,36.0,34.5,35.4,34.0,32.4,97,92,87,30.24,30.12,7,3,7,0.00
2014-1-2,41.0,38.1,34.9,36.7,34.7,32.8,94,87,83,30.12,29.94,10,4,10,0.00
2014-1-3,39.6,36.8,31.6,38.8,36.0,30.9,97,97,83,30.18,29.97,8,3,8,0.00
2014-1-4,42.8,41.3,37.8,42.0,40.5,37.0,97,97,97,30.18,29.88,10,5,10,0.02
2014-1-5,49.5,44.9,41.2,46.8,43.4,40.4,97,95,89,29.91,29.77,8,4,8,0.22
2014-1-6,49.6,42.3,34.3,47.9,41.2,33.6,97,96,88,30.18,30.03,6,1,6,0.00
2014-1-7,42.3,40.6,34.3,41.5,39.8,33.6,97,97,97,30.27,30.12,7,2,7,0.01
2014-1-8,41.9,39.6,38.8,41.1,38.9,38.1,97,97,97,30.30,30.24,6,2,6,0.00
2014-1-9,38.8,37.5,36.7,38.1,36.7,35.9,97,97,97,30.27,30.00,6,2,6,0.01
2014-1-10,46.2,39.7,35.1,44.5,36.5,31.6,97,89,67,30.18,29.91,18,4,18,0.00
2014-1-11,45.3,40.0,32.5,40.4,37.5,31.6,97,91,77,30.21,30.03,6,1,6,0.00
2014-1-12,43.0,38.6,29.7,39.5,26.6,22.7,97,63,48,30.21,30.03,21,7,21,0.00
2014-1-13,42.1,35.5,24.4,34.4,29.7,21.4,92,80,69,30.18,30.00,6,2,6,0.00
2014-1-14,44.8,38.9,35.6,36.0,32.1,30.2,81,77,66,30.06,29.77,12,5,12,0.00
2014-1-15,40.6,37.4,35.4,38.8,34.1,31.0,97,88,78,29.91,29.74,13,4,13,0.04
2014-1-16,42.4,36.9,29.5,38.1,34.6,28.7,97,91,81,30.03,29.85,6,2,6,0.00
2014-1-17,48.4,43.1,36.1,41.8,38.1,33.9,93,83,74,29.85,29.77,6,2,6,0.00
2014-1-18,52.5,44.2,37.2,47.5,40.9,35.4,97,89,61,29.91,29.80,10,1,10,0.02
2014-1-22,36.7,34.2,32.5,99.9,29.4,26.4,99,80,77,29.89,29.75,9,4,9,0.03
2014-1-23,32.7,31.4,30.2,28.7,26.6,25.0,85,83,78,30.08,29.88,6,2,6,0.03
2014-1-24,30.0,28.3,26.6,25.2,20.3,17.6,85,72,63,30.01,29.83,14,7,14,0.00
2014-1-25,30.0,26.9,20.1,20.2,16.4,11.7,74,64,58,29.88,29.80,11,5,11,0.00
2014-1-26,25.0,20.8,17.1,16.6,13.4,10.1,77,73,67,29.88,29.82,8,2,8,0.01
2014-1-27,43.9,21.2,14.5,18.0,13.9,7.5,80,73,68,29.90,29.67,5,1,5,0.00
2014-1-28,30.9,27.0,24.3,23.3,19.7,17.2,80,74,68,29.69,29.62,11,3,11,0.01
2014-1-29,29.7,26.8,24.6,25.7,22.0,19.5,85,82,79,30.00,29.67,14,4,14,0.07
2014-1-30,32.0,27.8,22.6,27.2,22.9,18.3,84,82,78,30.18,30.00,21,7,21,0.01
2014-1-31,31.1,28.6,27.3,21.9,19.7,17.8,74,69,66,30.28,30.19,20,8,20,0.00
2014-2-1,30.2,27.8,23.9,24.9,18.7,14.5,81,68,64,30.25,30.14,15,7,15,0.00
2014-2-2,34.0,31.2,25.9,26.4,24.7,20.0,84,77,71,30.25,30.08,8,2,8,0.01
2014-2-3,45.7,30.0,23.4,26.5,21.2,17.8,83,70,52,30.28,29.68,9,2,9,0.22
2014-2-4,36.5,28.2,22.1,23.1,19.3,16.1,78,69,55,30.29,29.71,12,3,12,0.17
2014-2-5,35.2,30.5,24.4,24.6,21.6,17.0,76,70,61,30.14,29.75,14,6,14,0.23
2014-2-6,35.2,33.2,31.3,30.1,28.8,27.3,86,84,81,30.01,29.92,6,2,6,0.01
2014-2-7,36.0,33.8,32.4,33.0,30.9,29.2,90,89,88,29.95,29.80,11,3,11,0.00
2014-2-8,43.3,38.2,32.7,41.2,35.7,26.2,94,91,87,29.85,29.67,8,2,8,0.22
2014-2-9,45.7,41.0,21.9,39.5,37.4,14.6,93,87,69,29.97,29.60,8,3,8,0.08
2014-2-10,50.0,42.3,34.0,36.6,32.7,28.9,84,69,46,29.88,29.75,16,6,16,0.01
2014-2-11,43.0,40.6,37.6,40.2,37.6,33.9,91,89,76,29.83,29.71,11,4,11,0.25
2014-2-12,45.7,41.1,37.8,41.6,37.7,33.4,91,88,84,29.80,29.63,20,6,20,0.05
2014-2-13,47.8,40.4,34.2,35.6,31.5,28.2,80,71,51,29.81,29.67,14,5,14,0.00
2014-2-14,45.5,39.1,30.4,37.5,31.1,23.9,89,73,58,30.00,29.66,21,5,21,0.01
2014-2-15,49.6,40.2,27.3,32.7,28.0,20.4,82,63,43,30.01,29.85,16,4,16,0.01
2014-2-16,52.0,45.8,31.8,39.0,36.7,25.6,82,71,59,29.99,29.86,13,5,13,0.01
2014-2-17,42.3,41.0,38.3,38.1,35.9,34.0,87,82,74,30.13,29.95,11,3,11,0.13
2014-2-18,46.2,41.9,31.8,38.8,35.6,27.4,88,79,71,30.22,30.11,9,3,9,0.00
2014-2-19,46.2,43.7,41.5,42.3,39.6,37.7,88,85,81,30.11,29.91,9,3,9,0.07
2014-2-20,50.4,44.2,36.9,40.3,37.2,30.7,87,77,63,30.05,29.98,10,3,10,0.00
2014-2-21,42.4,40.8,39.0,38.1,36.8,34.8,88,86,84,29.97,29.91,51,4,51,0.21
2014-2-22,47.1,43.3,40.1,40.8,38.8,36.8,89,84,78,30.03,29.90,8,3,8,0.28
2014-2-23,51.6,45.5,41.0,39.7,36.3,30.3,85,71,53,30.22,30.03,17,5,17,0.01
2014-2-24,48.6,43.6,35.2,37.0,33.2,27.1,75,67,58,30.21,30.18,11,4,11,0.00
2014-2-25,46.4,42.7,37.0,38.6,36.4,30.7,85,78,71,30.19,30.13,8,2,8,0.00
2014-2-26,51.4,45.2,32.7,35.7,33.6,26.9,80,64,53,30.19,30.15,13,5,13,0.00
2014-2-27,50.7,44.9,40.8,38.4,36.0,33.2,76,71,61,30.17,29.95,9,4,9,0.00
2014-2-28,47.7,44.0,36.5,39.7,37.3,26.9,86,77,68,30.07,29.75,20,4,20,0.25
2014-3-1,51.4,44.3,34.5,40.1,36.5,29.9,87,74,63,29.78,29.67,13,6,13,0.00
2014-3-2,50.5,46.9,40.3,36.0,34.0,32.2,74,61,54,29.61,29.58,22,6,22,0.00
2014-3-3,43.2,42.6,38.8,37.8,37.1,31.6,83,81,75,29.53,29.51,10,5,10,0.01
2014-3-4,49.8,45.3,39.2,38.9,37.0,34.5,84,73,65,29.69,29.51,13,5,13,0.00
2014-3-5,53.8,48.8,41.7,39.0,37.4,34.7,81,65,55,29.92,29.71,13,5,13,0.05
2014-3-6,54.7,50.0,45.3,39.4,37.1,33.1,64,61,56,30.22,30.13,13,4,13,0.00
2014-3-7,48.7,45.2,41.4,38.1,34.9,31.9,82,67,57,30.27,30.20,8,4,8,0.03
2014-3-8,57.6,51.7,41.9,40.8,38.1,34.4,83,61,46,30.38,30.32,16,6,16,0.00
2014-3-9,54.1,48.2,37.2,34.6,32.3,28.2,75,55,42,30.46,29.52,21,7,21,0.13
2014-3-10,53.1,45.8,36.9,25.7,19.9,9.2,61,38,17,30.37,30.24,18,7,18,0.00
2014-3-11,59.7,49.4,34.0,29.0,17.6,7.7,65,32,15,30.31,30.18,13,4,13,0.00
2014-3-12,60.1,51.1,33.8,31.6,23.4,11.9,69,37,15,30.40,30.33,13,4,13,0.00
2014-3-13,60.1,51.3,32.5,31.6,25.2,14.8,71,39,20,30.41,30.30,12,3,12,0.00
2014-3-14,65.1,53.2,35.1,35.6,32.7,23.8,78,49,23,30.26,30.12,13,2,13,0.00
2014-3-15,62.6,48.7,35.8,39.7,34.7,26.9,85,62,29,29.93,29.74,34,12,34,0.07
2014-3-16,55.0,50.5,42.8,43.7,40.9,34.6,83,70,62,29.82,29.62,37,16,37,0.05
2014-3-17,57.2,53.6,45.9,41.9,39.0,36.5,71,58,47,30.01,29.81,31,12,31,0.05
2014-3-18,62.4,55.0,42.1,42.6,39.9,35.4,77,58,44,30.06,29.93,18,6,18,0.00
2014-3-19,57.9,53.8,48.4,42.4,37.6,34.2,76,55,43,30.18,29.88,30,12,30,0.00
2014-3-20,67.1,58.2,46.0,40.5,37.2,32.5,70,47,29,30.27,30.19,21,6,21,0.00
2014-3-21,69.3,57.8,39.2,41.9,36.9,30.4,83,49,25,30.17,29.98,14,5,14,0.00
2014-3-22,69.1,59.6,43.0,45.1,41.0,30.4,74,51,29,30.17,29.79,24,11,24,0.12
2014-3-23,68.0,58.7,48.9,47.8,44.3,40.8,81,61,39,29.75,29.64,24,7,24,0.01
2014-3-24,46.4,44.0,41.2,42.7,38.2,34.7,94,80,70,29.73,29.66,14,6,14,0.12
2014-3-25,53.1,45.7,36.1,35.9,31.9,29.0,82,59,41,29.82,29.70,15,6,15,0.00
2014-3-26,54.5,47.9,38.5,38.1,35.7,33.7,85,63,50,29.97,29.86,20,5,20,0.00
2014-3-27,59.0,52.4,42.3,40.2,36.8,32.0,67,56,43,29.96,29.89,17,9,17,0.00
2014-3-28,64.9,56.2,42.4,39.4,34.9,24.4,71,47,22,30.07,29.88,20,6,20,0.00
2014-3-29,67.1,59.9,45.3,42.0,36.1,30.4,74,43,26,30.19,30.13,16,5,16,0.00
2014-3-30,68.0,57.7,38.7,38.9,31.6,26.5,68,40,22,30.13,29.99,13,4,13,0.00
2014-3-31,68.5,58.8,39.6,42.3,38.9,32.9,79,50,34,29.93,29.82,15,5,15,0.00
2014-4-1,65.5,57.9,48.6,38.2,34.8,28.0,62,43,27,29.93,29.84,20,6,20,0.00
2014-4-2,61.9,55.0,46.8,41.4,37.9,34.8,71,53,41,29.97,29.90,14,4,14,0.00
2014-4-3,68.9,59.0,45.7,45.5,42.7,36.8,74,56,41,29.86,29.77,23,6,23,0.00
2014-4-4,61.3,56.7,45.9,48.3,46.3,41.3,86,69,59,29.85,29.77,13,4,13,0.00
2014-4-5,65.7,59.0,43.3,48.4,45.6,35.3,80,62,50,29.95,29.80,16,5,16,0.15
2014-4-6,61.7,54.8,49.3,49.5,46.1,36.7,87,73,62,30.06,29.90,15,7,15,0.00
2014-4-7,64.8,57.1,47.7,48.1,44.6,41.0,95,65,44,30.14,30.08,10,3,10,0.00
2014-4-8,71.1,61.2,42.8,51.5,46.7,38.3,87,61,43,30.06,29.91,21,7,21,0.03
2014-4-9,56.7,51.8,43.2,50.0,36.7,27.2,88,58,34,30.08,29.93,24,12,24,0.12
2014-4-10,51.6,46.3,35.2,43.4,37.7,29.1,89,72,62,29.99,29.92,20,6,20,0.12
2014-4-11,59.4,52.2,41.5,39.4,35.6,28.8,81,55,33,30.07,30.00,14,6,14,0.00
2014-4-12,61.0,53.7,40.5,41.6,38.9,31.5,85,59,34,30.09,29.97,13,4,13,0.00
2014-4-13,62.4,56.2,43.5,45.6,41.1,34.7,85,58,37,29.99,29.94,17,6,17,0.00
2014-4-14,60.6,52.2,42.1,45.5,40.3,35.5,86,65,44,29.93,29.77,26,8,26,0.00
2014-4-15,52.2,46.7,39.7,34.6,30.8,22.8,78,56,32,29.96,29.86,21,10,21,0.00
2014-4-16,52.0,44.3,37.8,35.4,32.6,30.5,83,64,46,30.09,30.00,26,12,26,0.00
2014-4-17,55.8,51.0,44.2,39.0,35.7,29.5,59,56,50,30.02,29.92,24,9,24,0.00
2014-4-18,66.4,60.5,46.6,45.0,42.8,37.3,70,52,44,29.81,29.70,13,6,13,0.00
2014-4-19,65.5,58.6,50.9,45.3,43.2,38.0,72,58,38,29.77,29.67,25,10,25,0.05
2014-4-20,61.2,55.0,47.3,46.2,43.6,39.4,80,66,51,29.86,29.79,12,5,12,0.01
2014-4-21,67.3,59.2,48.0,50.6,47.9,44.5,89,67,50,29.86,29.80,18,5,18,0.00
2014-4-22,59.5,55.9,48.9,56.3,52.4,47.2,94,88,80,30.11,29.82,12,2,12,0.48
2014-4-23,66.7,59.9,48.4,57.4,54.4,46.4,94,82,64,30.08,30.01,15,2,15,0.34
2014-4-24,69.3,63.5,54.1,52.9,51.3,49.6,85,65,53,29.97,29.92,13,6,13,0.00
2014-4-25,57.2,55.9,54.3,54.3,53.1,50.9,93,90,81,29.96,29.93,17,4,17,0.36
2014-4-26,61.9,57.9,53.4,54.6,53.1,50.2,94,84,74,29.97,29.89,7,3,7,0.01
2014-4-27,69.3,63.5,39.9,50.0,46.9,35.2,83,56,44,30.00,29.75,15,6,15,0.00
2014-4-28,72.1,61.9,51.1,51.0,48.4,43.2,89,63,36,29.76,29.71,15,4,15,0.01
2014-4-29,68.0,62.9,52.5,51.5,48.7,45.3,81,60,44,29.78,29.71,18,6,18,0.00
2014-4-30,71.6,61.0,51.4,54.7,49.0,40.3,85,66,36,29.76,29.70,16,4,16,0.19
2014-5-1,68.4,62.8,54.7,54.1,50.4,47.6,83,65,49,29.78,29.74,11,3,11,0.07
2014-5-2,70.0,62.3,53.6,52.2,50.0,46.3,85,66,45,29.80,29.75,13,5,13,0.08
2014-5-3,64.9,58.1,50.4,52.7,50.8,47.8,93,77,62,29.81,29.74,15,6,15,0.21
2014-5-4,57.9,51.0,47.1,47.8,42.1,34.4,91,73,55,29.91,29.73,16,7,16,0.01
2014-5-5,58.5,52.4,42.3,41.7,37.6,34.2,79,58,44,30.04,29.96,11,4,11,0.00
2014-5-6,64.0,58.0,44.6,44.9,42.9,39.8,83,58,45,30.14,30.07,15,5,15,0.00
2014-5-7,71.1,62.6,50.5,52.3,48.7,43.1,85,62,44,30.03,29.91,22,7,22,0.04
2014-5-8,67.6,60.5,52.2,52.4,47.8,42.4,93,66,41,30.04,29.95,15,6,15,0.37
2014-5-9,69.8,64.7,51.3,51.7,50.2,47.5,87,60,50,30.04,29.97,13,5,13,0.00
2014-5-10,68.4,63.2,55.0,51.6,43.7,33.8,84,52,30,29.99,29.91,23,8,23,0.00
2014-5-11,62.6,55.7,46.9,57.3,52.0,43.6,94,88,71,29.88,29.63,23,7,23,0.79
2014-5-12,61.2,53.7,47.1,45.4,43.4,40.0,89,70,46,29.93,29.66,24,8,24,0.80
2014-5-13,58.5,53.2,48.4,48.2,45.5,41.7,88,76,56,29.94,29.89,18,4,18,0.16
2014-5-14,59.4,52.5,47.5,48.4,45.0,40.7,94,77,63,29.86,29.81,24,12,24,0.04
2014-5-15,52.3,51.0,49.8,48.5,44.5,39.8,92,79,63,29.82,29.67,24,13,24,1.13
2014-5-16,60.8,56.4,51.6,52.9,49.5,47.6,92,78,64,29.88,29.69,18,7,18,0.12
2014-5-17,62.2,56.8,50.2,51.9,50.0,47.2,91,78,66,29.93,29.86,15,6,15,0.05
2014-5-18,57.7,55.3,50.9,52.9,50.3,47.2,87,83,74,30.03,29.99,13,3,13,0.07
2014-5-19,71.6,64.0,48.7,52.9,50.6,44.4,91,63,45,30.06,29.77,18,5,18,0.00
2014-5-20,74.1,67.5,53.6,54.7,52.6,49.8,88,60,47,30.09,24.28,15,4,51,0.00
2014-5-21,77.4,71.0,57.4,55.0,52.6,50.5,82,53,39,30.16,30.07,15,5,15,0.00
2014-5-22,78.4,68.8,59.9,55.3,53.2,50.6,72,58,42,30.06,29.98,8,3,8,0.00
2014-5-23,81.1,74.9,64.2,59.9,57.4,55.1,74,55,43,29.99,29.91,17,5,17,0.00
2014-5-24,81.3,73.6,63.0,60.4,57.1,53.4,87,58,40,29.99,29.91,14,5,14,0.32
2014-5-25,77.4,70.4,63.3,63.1,59.7,56.3,86,70,51,30.07,30.01,13,4,13,0.09
2014-5-26,78.1,72.1,62.8,62.3,59.9,56.9,85,66,52,30.01,29.85,11,4,11,0.00
2014-5-27,75.6,69.4,60.4,60.5,56.5,50.1,86,65,44,29.84,29.74,14,5,14,0.00
2014-5-28,72.5,66.1,59.4,56.0,53.3,50.1,81,64,49,29.81,29.76,14,6,14,0.02
2014-5-29,69.3,62.6,55.2,55.3,52.7,49.5,82,71,59,29.82,29.77,14,6,14,0.00
2014-5-30,55.9,53.7,50.9,48.9,47.7,44.8,86,80,77,29.95,29.82,13,6,13,0.00
2014-5-31,61.2,57.6,52.7,48.0,45.5,42.8,74,64,58,29.96,29.93,13,5,13,0.00
2014-6-1,68.7,61.4,54.5,52.9,50.6,48.1,80,68,53,29.95,29.91,13,5,13,0.00
2014-6-2,66.6,61.0,54.7,54.0,49.7,46.2,86,68,49,29.99,29.84,18,6,18,0.26
2014-6-3,67.6,61.1,53.4,50.9,48.0,43.6,84,63,43,30.00,29.94,13,5,13,0.01
2014-6-4,72.0,65.7,52.7,52.5,50.0,46.6,85,58,42,29.90,29.85,14,3,14,0.00
2014-6-5,76.3,69.2,52.0,57.3,52.2,47.6,85,56,42,30.00,29.76,10,4,10,0.01
2014-6-6,79.3,73.7,61.7,57.8,55.5,53.5,80,54,42,30.07,30.03,13,5,13,0.00
2014-6-7,82.6,75.9,61.2,58.7,54.4,48.1,83,49,31,30.11,30.06,9,3,9,0.00
2014-6-8,85.5,78.1,61.7,59.6,56.4,52.4,76,49,33,30.17,30.11,10,3,10,0.00
2014-6-9,87.8,80.8,66.4,62.6,59.2,55.6,72,49,35,30.16,30.09,12,4,12,0.00
2014-6-10,91.8,84.0,62.2,63.1,57.7,50.6,86,43,26,30.10,29.99,22,5,22,0.00
2014-6-11,88.2,81.8,69.4,62.4,60.2,55.4,71,49,34,30.10,30.03,13,4,13,0.00
2014-6-12,87.1,79.8,68.4,62.0,57.1,51.3,63,46,40,30.12,30.03,15,6,15,0.00
2014-6-13,78.1,73.9,66.7,56.8,47.9,39.0,64,41,27,30.01,29.88,21,9,21,0.00
2014-6-14,73.9,68.8,61.7,48.5,45.3,39.8,58,43,31,29.93,29.87,18,9,18,0.00
2014-6-15,74.3,69.0,61.5,49.4,46.6,42.0,61,45,32,30.02,29.94,15,5,15,0.00
2014-6-16,73.6,67.5,57.9,50.6,48.8,46.1,70,52,40,30.02,29.94,14,4,14,0.00
2014-6-17,72.7,67.5,60.4,53.9,49.7,47.4,68,53,42,29.98,29.92,11,4,11,0.00
2014-6-18,77.4,70.6,60.8,51.3,45.5,39.6,64,42,27,30.02,29.95,14,5,14,0.00
2014-6-19,79.0,71.0,57.4,49.4,46.0,37.1,69,42,23,29.93,29.80,12,4,12,0.00
2014-6-20,71.2,66.8,61.2,51.6,46.3,38.8,64,48,35,29.86,29.79,21,10,21,0.00
2014-6-21,72.3,66.8,60.3,48.9,43.6,39.1,64,44,32,30.00,29.93,18,8,18,0.00
2014-6-22,75.4,69.2,59.2,47.8,45.4,40.6,63,43,31,30.06,30.01,18,6,18,0.00
2014-6-23,80.6,73.6,57.0,51.9,48.5,44.6,69,42,29,30.08,29.98,21,6,21,0.00
2014-6-24,69.6,63.9,59.0,63.0,59.5,56.8,94,86,69,29.96,29.91,10,3,10,0.33
2014-6-25,69.8,65.0,56.7,57.5,55.9,52.1,93,73,55,29.84,29.71,12,4,12,0.01
2014-6-26,70.9,62.7,53.4,51.8,48.7,45.8,87,62,42,29.97,29.80,22,8,22,0.01
2014-6-27,74.7,67.4,57.0,50.7,46.9,40.6,75,50,32,30.09,30.01,8,3,8,0.00
2014-6-28,79.7,74.6,63.3,51.9,49.3,46.1,63,42,31,30.11,29.97,18,6,18,0.00
2014-6-29,84.6,77.8,65.1,60.7,58.6,56.2,73,53,42,29.91,29.78,23,9,23,0.00
2014-6-30,69.3,64.7,60.3,64.1,57.9,51.6,92,79,70,29.83,29.70,16,8,16,0.12
2014-7-1,75.0,70.6,56.3,52.0,48.4,44.4,83,46,36,30.10,29.93,14,5,14,0.00
2014-7-2,81.5,75.0,61.9,54.9,51.6,46.8,72,45,30,30.14,30.05,18,8,18,0.00
2014-7-3,75.4,68.8,58.1,57.3,51.4,45.8,94,57,36,30.22,30.11,20,7,20,0.00
2014-7-4,79.7,73.2,59.7,55.3,52.5,49.3,79,50,35,30.21,30.02,14,4,14,0.00
2014-7-5,81.0,75.4,63.3,56.3,53.9,50.1,63,48,38,29.93,29.86,12,4,12,0.00
2014-7-6,86.2,80.0,67.8,60.8,58.5,55.3,68,49,38,29.96,29.93,10,4,10,0.00
2014-7-7,88.5,80.6,66.4,63.4,61.3,58.6,76,53,39,30.02,29.95,11,4,11,0.00
2014-7-8,78.1,72.1,67.6,68.5,65.5,62.4,92,80,68,29.88,29.72,14,4,14,0.15
2014-7-9,68.9,65.6,61.7,63.2,59.5,54.4,95,81,63,29.75,29.68,9,4,9,0.04
2014-7-10,76.8,69.2,57.0,57.7,53.1,49.3,80,58,41,29.74,29.65,16,5,16,0.01
2014-7-11,68.4,64.1,61.7,62.9,61.0,58.5,94,90,79,29.65,29.60,9,2,9,0.45
2014-7-12,78.3,71.8,62.8,57.7,53.4,47.8,81,54,39,29.84,29.66,16,8,16,0.06
2014-7-13,81.3,72.4,58.6,63.3,58.8,54.1,88,64,43,29.91,29.83,15,5,15,0.07
2014-7-14,80.1,73.6,63.9,62.7,60.4,56.8,87,64,46,29.98,29.91,13,4,13,0.00
2014-7-15,84.9,78.0,66.7,63.0,59.4,56.0,78,54,40,30.04,29.97,15,6,15,0.00
2014-7-16,86.9,80.3,72.0,61.7,58.2,53.2,65,48,32,30.06,30.00,18,8,18,0.00
2014-7-17,83.1,76.3,70.2,62.9,60.3,57.2,68,58,45,30.07,30.03,18,8,18,0.02
2014-7-18,82.9,75.9,69.6,68.6,62.2,59.5,82,63,51,30.06,30.01,15,5,15,0.04
2014-7-19,86.5,80.3,68.0,63.1,60.0,57.0,78,51,38,30.06,30.00,13,4,13,0.00
2014-7-20,89.8,83.3,72.7,62.5,59.8,56.4,65,46,33,30.02,29.90,15,5,15,0.00
2014-7-21,91.2,83.9,73.6,65.0,62.8,58.8,69,50,39,29.82,29.75,20,9,20,0.00
2014-7-22,71.4,68.6,65.7,66.6,65.2,63.5,97,89,79,29.85,29.78,8,3,8,0.92
2014-7-23,75.9,71.8,64.6,64.9,60.4,57.6,97,68,56,29.81,29.79,20,8,20,0.02
2014-7-24,78.8,72.1,60.6,61.5,58.9,56.9,91,65,48,29.88,29.78,13,4,13,0.00
2014-7-25,82.4,76.6,66.0,61.7,58.9,54.3,80,55,40,29.95,29.90,13,5,13,0.00
2014-7-26,83.7,77.9,71.4,65.5,63.5,60.7,73,62,47,29.96,29.92,8,5,8,0.00
2014-7-27,78.6,73.7,67.8,69.8,65.9,62.6,90,77,64,29.93,29.88,13,5,13,0.12
2014-7-28,76.1,69.2,64.6,65.5,63.5,60.9,91,83,67,29.92,29.84,13,4,13,0.02
2014-7-29,77.2,71.3,64.9,67.4,65.4,62.2,93,82,66,29.84,29.79,13,4,13,0.15
2014-7-30,81.0,76.1,66.4,68.6,67.0,60.0,95,74,62,29.96,29.73,16,8,16,0.00
2014-7-31,78.3,72.8,64.9,66.9,65.2,63.5,97,78,62,29.84,29.77,10,4,10,0.01
2014-8-1,83.3,77.6,68.9,69.0,66.6,63.7,91,69,55,29.87,29.81,13,5,13,0.00
2014-8-2,85.8,79.3,69.3,67.1,64.6,60.8,86,62,46,29.91,29.86,13,3,13,0.00
2014-8-3,84.9,77.6,67.1,68.0,63.6,56.5,74,62,52,29.94,29.86,11,4,11,0.00
2014-8-4,73.9,70.1,64.8,68.0,65.8,62.4,97,87,73,29.98,29.92,8,2,8,0.07
2014-8-5,81.3,75.2,64.6,66.2,63.5,60.9,91,68,53,29.93,29.85,13,6,13,0.00
2014-8-6,78.6,68.5,63.5,67.8,63.8,60.3,97,86,64,29.90,29.86,17,6,17,0.47
2014-8-7,72.7,69.4,64.6,66.0,64.2,61.2,93,84,69,29.93,29.89,12,3,12,0.05
2014-8-8,80.4,72.9,65.3,65.8,63.6,61.3,95,74,53,29.97,29.91,18,3,18,0.00
2014-8-9,82.2,75.7,65.1,68.4,65.3,61.4,95,71,51,30.00,29.95,12,4,12,0.00
2014-8-10,81.5,76.8,70.2,69.3,66.7,63.5,87,71,57,30.01,29.93,15,3,15,0.00
2014-8-11,83.7,77.7,66.6,70.2,67.6,64.2,93,72,56,29.92,29.83,12,5,12,0.00
2014-8-12,79.5,73.9,66.6,62.6,57.1,53.7,74,56,43,29.95,29.90,12,5,12,0.00
2014-8-13,83.3,75.6,65.3,71.3,67.4,58.4,90,76,62,29.91,29.68,15,4,15,0.18
2014-8-14,66.9,61.6,57.7,58.5,56.9,54.4,95,85,67,29.92,29.83,18,6,18,0.17
2014-8-15,74.8,67.4,53.8,59.5,57.1,52.1,96,71,52,29.92,29.87,11,4,11,0.01
2014-8-16,70.3,66.1,59.0,55.7,53.9,51.7,88,65,54,29.97,29.93,20,8,20,0.12
2014-8-17,71.6,66.3,58.3,55.4,52.3,49.5,83,62,47,30.01,29.94,15,6,15,0.00
2014-8-18,76.6,70.7,61.7,56.2,53.9,49.2,80,57,42,29.96,29.88,18,6,18,0.00
2014-8-19,79.2,72.2,60.3,61.3,58.7,54.1,80,63,49,29.92,29.87,16,6,16,0.00
2014-8-20,67.6,64.6,60.1,64.7,60.9,57.1,95,88,74,29.99,29.93,11,3,11,0.27
2014-8-21,69.4,62.7,57.2,59.8,55.3,50.7,98,79,54,30.05,29.88,20,6,20,0.01
2014-8-22,71.6,65.7,57.4,56.9,54.9,51.8,85,68,53,30.06,29.99,8,3,8,0.00
2014-8-23,71.1,66.7,63.3,63.1,59.3,54.1,90,78,65,30.00,29.81,12,3,12,0.04
2014-8-24,69.8,63.2,57.0,61.3,54.5,47.7,96,75,46,30.05,29.78,26,8,26,0.19
2014-8-25,68.9,60.7,48.7,50.2,47.2,43.2,89,63,41,30.09,30.00,11,3,11,0.00
2014-8-26,71.2,64.7,54.1,61.1,56.2,48.3,87,74,65,29.87,29.75,23,6,23,0.00
2014-8-27,72.3,65.6,55.8,62.1,54.9,44.7,93,69,54,29.95,29.72,24,10,24,0.00
2014-8-28,71.2,62.4,47.3,52.5,49.1,43.7,90,64,43,30.09,30.00,13,4,13,0.00
2014-8-29,72.5,63.4,50.7,52.5,50.7,25.9,88,64,49,30.11,30.08,10,3,10,0.00
2014-9-5,74.8,69.4,63.1,61.0,58.0,53.4,88,68,55,30.01,29.93,15,4,15,0.01
2014-9-6,74.5,68.4,61.0,61.2,59.8,57.4,93,75,58,29.99,29.92,8,2,8,0.04
2014-9-7,71.2,66.1,61.0,62.2,59.9,57.0,95,81,62,29.99,29.95,7,2,7,0.01
2014-9-8,78.8,69.6,59.2,61.6,58.6,55.9,90,69,50,30.03,29.99,10,3,10,0.00
2014-9-9,79.2,68.6,54.7,62.0,59.4,53.6,97,74,52,30.01,29.94,15,3,15,0.00
2014-9-10,67.8,64.7,61.2,62.8,61.0,59.2,94,88,83,29.94,29.90,9,3,9,0.00
2014-9-11,65.1,62.1,59.0,64.2,60.7,57.2,97,95,92,29.87,29.79,13,4,13,0.47
2014-9-12,66.4,62.0,59.2,64.0,60.4,56.9,97,95,87,29.99,29.78,10,5,10,0.55
2014-9-13,65.5,61.0,58.1,61.0,58.6,55.6,97,92,83,30.02,29.90,21,8,21,0.27
2014-9-14,67.8,61.3,56.8,62.5,59.1,55.3,98,93,80,30.01,29.95,13,5,13,1.08
2014-9-15,69.4,61.4,56.7,61.0,58.5,56.1,98,91,70,30.05,29.97,13,4,13,0.03
2014-9-16,72.5,65.0,57.7,60.7,57.5,54.4,97,78,54,30.10,30.05,10,2,10,0.00
2014-9-17,70.3,60.7,52.3,58.4,54.8,51.5,98,82,56,30.11,30.06,10,2,10,0.01
2014-9-18,71.6,63.9,55.2,57.9,54.4,51.1,98,73,50,30.14,30.11,13,4,13,0.00
2014-9-19,71.1,61.0,51.6,57.8,53.8,49.4,94,78,60,30.12,30.03,15,4,15,0.00
2014-9-20,72.3,61.8,53.6,61.9,57.9,52.2,97,88,69,30.04,29.92,6,1,6,0.00
2014-9-21,75.0,64.7,58.6,61.8,59.0,56.6,96,83,59,29.98,29.82,13,3,13,0.01
2014-9-22,61.5,58.3,52.3,57.4,48.6,41.7,94,71,52,29.84,29.75,28,9,28,0.00
2014-9-23,59.7,54.1,46.8,47.3,44.3,42.1,84,70,61,30.06,29.82,20,9,20,0.00
2014-9-24,63.1,51.5,37.6,44.2,41.2,36.2,96,70,46,30.10,30.00,9,3,9,0.00
2014-9-25,61.3,54.3,42.3,59.6,46.4,40.2,94,75,64,30.06,29.94,10,3,10,0.03
2014-9-26,60.4,56.0,50.9,51.1,49.1,46.9,92,78,66,30.13,30.05,15,6,15,0.01
2014-9-27,63.9,58.8,49.1,54.7,51.4,47.5,95,77,66,30.30,30.20,10,4,10,0.00
2014-9-28,66.4,58.4,48.0,50.8,48.7,45.7,93,71,53,30.39,30.35,10,3,10,0.00
2014-9-29,69.3,56.8,43.5,53.0,49.1,42.2,96,77,52,30.40,30.30,14,3,14,0.00
2014-9-30,70.7,55.6,43.7,54.3,48.9,42.4,96,80,53,30.30,30.25,9,1,9,0.00
2014-10-1,68.0,61.9,51.6,58.2,55.9,49.9,95,82,65,30.27,30.22,10,2,10,0.00
2014-10-2,65.7,60.2,55.2,57.7,56.0,53.8,96,87,69,30.30,30.25,9,2,9,0.01
2014-10-3,62.2,57.7,50.4,54.2,52.3,48.1,92,83,73,30.30,30.24,8,2,8,0.00
2014-10-4,56.7,54.2,51.3,52.4,51.1,49.9,96,89,81,30.22,30.16,6,2,6,0.01
2014-10-5,60.4,53.7,46.8,51.2,48.0,44.6,97,82,64,30.15,30.12,8,2,8,0.01
2014-10-6,62.1,56.4,50.0,49.4,47.6,44.5,93,73,54,30.14,30.08,13,4,13,0.00
2014-10-7,59.7,56.1,51.4,52.1,50.3,48.3,93,81,71,30.13,30.08,14,5,14,0.09
2014-10-8,60.6,56.5,50.9,54.4,52.0,48.4,91,85,79,30.16,30.06,11,4,11,0.00
2014-10-9,69.1,61.3,52.5,57.3,54.4,50.0,91,79,64,30.10,30.03,13,5,13,0.00
2014-10-10,70.2,62.8,53.8,56.6,55.0,50.9,91,76,61,30.09,30.05,10,4,10,0.00
2014-10-11,71.8,63.8,53.1,58.6,56.0,51.4,94,77,60,30.05,29.98,10,4,10,0.00
2014-10-12,69.6,62.5,54.5,59.3,56.2,51.9,94,81,67,30.02,29.99,10,3,10,0.00
2014-10-13,72.9,64.6,55.6,60.0,57.0,53.9,95,77,60,29.96,29.86,14,4,14,0.00